カタログに戻る

SCOUT X-4 DEB

運用中LEO
NORAD 2011·DEBRIS·🇺🇸 United States

打ち上げ Apr 29, 1965 から Wallops Flight Facility

Loading…

次のパス (今後24時間)

TLE

最新Source: Space-Track

元期: Sep 14, 2026, 15:20 UTC

1 02011U 65032D   26257.63909675  .00001308  00000-0  21738-2 0  9992
2 02011  41.1972  97.5380 0219504  45.6173   2.8825 13.41107927989331

AllMySatでSCOUT X-4 DEBをリアルタイム追跡

Download on the App Store